User: anonymous   Login
Location: ??????
(30.5519°N, 47.7720°E)
Time: 09:14:09
(UTC+00:00)
Language:

Meteor 2-1 Rocket - Orbit

View from above orbital plane
View from above orbital plane
View from above satellite
View from above satellite

Ground track
Ground track

The orbit data is extracted from the following two-line orbital elements,

1  8027U 75064B   21100.73843109  .00000133  00000-0  70909-4 0  9994
2  8027  81.2954 153.4412 0056012 295.8600  63.6800 14.07353912348487
Epoch (UTC): 10 April 2021 17:43:20
Eccentricity: 0.0056012
inclination: 81.2954°
perigee height: 828 km
apogee height: 909 km
right ascension of ascending node: 153.4412°
argument of perigee: 295.8600°
revolutions per day: 14.07353912
mean anomaly at epoch: 63.6800°
orbit number at epoch: 34848

The dashed part of the orbit path shows where the satellite is in the earth's shadow,  

DLR